Location: Hackberry
(29.5783°N, 96.8797°W)
Time: 00:21:19
(UTC+00:00)

Courier 1B - Pass Details

Date: 16 November 2024
Orbit: 962 x 1208 km, 28.3° (Epoch: 03 December)

Event Time Altitude Azimuth Distance (km) Brightness Sun altitude
Rises 02:34:49 0° 262° (W) 3,658 11.4 -39.7°
Reaches altitude 10° 02:39:05 10° 236° (WSW) 2,742 10.3 -40.6°
Maximum altitude 02:41:59 13° 210° (SSW) 2,544 9.9 -41.3°
Enters shadow 02:42:13 13° 208° (SSW) 2,548 9.9 -41.3°
